Home   Weather   Cartagena   Past weeks

Flag for Colombia Past Weather in Cartagena, Colombia — Yesterday and Last 2 Weeks

Now
84 °F

Scattered clouds.


Feels Like: 96 °F
Forecast: 80 / 89 °F
Wind: 12 mph from East

Location: Cartagena / Rafael Nunez

Current Time: Dec 5, 2016 at 9:54:51 am

Latest Report: Dec 5, 2016 at 9:00 am


Visibility: N/A

Pressure: 29.86 "Hg

Humidity: 84%

Dew Point: 79 °F

Location of CartagenaLocation

Past Weather in Cartagena — Graph

°F

Cartagena Temperature Yesterday

Maximum temperature yesterday: 86 °F (at 9:00 am)
Minimum temperature yesterday: 79 °F (at 5:00 am)
Average temperature yesterday: 83 °F

High & Low Weather Summary for the Past Weeks

 TemperatureHumidityPressure
High102 °F (Nov 21, 5:00 pm)100% (Nov 20, 9:00 am)29.89 "Hg (Nov 20, 9:00 am)
Low75 °F (Nov 20, 9:00 am)42% (Nov 21, 5:00 pm)26.86 "Hg (Dec 2, 8:00 am)
Average83 °F86%29.79 "Hg
* Reported Nov 20 9:00 am — Dec 5 9:00 am, Cartagena, Weather by CustomWeather, © 2016

Note: Actual official high and low records may vary slightly from our data, if they occured in-between our weather recording intervals... More about our weather records

Advertising

Cartagena Weather History for the Previous 24 Hours

Scroll right to see more
 ConditionsComfort  
Time TempWeatherWind HumidityBarometerVisibility
9:00 am
Mon, Dec 5
84 °FScattered clouds.12 mph84%29.86 "HgN/A
8:00 am82 °FFog.7 mph89%29.84 "Hg4 mi
7:00 am79 °FFog.6 mph100%29.82 "Hg4 mi
6:00 am81 °FPassing clouds.5 mph89%29.80 "HgN/A
5:00 am82 °FPassing clouds.8 mph84%29.79 "HgN/A
4:00 am82 °FPassing clouds.8 mph89%29.78 "HgN/A
3:00 am81 °FPassing clouds.6 mph94%29.78 "HgN/A
2:00 am81 °FPassing clouds.5 mph94%29.80 "HgN/A
1:00 am81 °FPassing clouds.5 mph94%29.82 "HgN/A
12:00 am81 °FPassing clouds.3 mph100%29.84 "HgN/A
11:00 pm
Sun, Dec 4
81 °FPassing clouds.3 mph100%29.84 "HgN/A
10:00 pm82 °FPassing clouds.5 mph89%29.86 "HgN/A
9:00 pm82 °FPassing clouds.7 mph89%29.86 "HgN/A
8:00 pm84 °FPartly cloudy.9 mph84%29.84 "HgN/A
7:00 pm84 °FPassing clouds.9 mph84%29.81 "HgN/A
6:00 pm84 °FPartly cloudy.9 mph79%29.80 "HgN/A
5:00 pm84 °FBroken clouds.8 mph79%29.79 "HgN/A
4:00 pm86 °FBroken clouds.9 mph75%29.79 "HgN/A
3:00 pm86 °FScattered clouds.7 mph79%29.79 "HgN/A
2:00 pm86 °FScattered clouds.7 mph79%29.81 "HgN/A
1:00 pm86 °FScattered clouds.7 mph75%29.83 "HgN/A
12:00 pm86 °FScattered clouds.8 mph79%29.86 "HgN/A
11:00 am86 °FScattered clouds.5 mph79%29.87 "HgN/A
10:00 am86 °FScattered clouds.2 mph75%29.89 "Hg5 mi
9:00 am86 °FScattered clouds.3 mph84%29.89 "Hg5 mi
Weather by CustomWeather, © 2016

See weather overviewHow to use our weather pages